This is the latest recevied weather packets stored in our database for station/object OK4ZAW-16. If no packets are shown the sender has not sent any weather packets the latest 10 day(s).
| Time | Temp. | Humidity | Pressure | Rain* | Wind** | Luminosity | Snow |
|---|---|---|---|---|---|---|---|
| 1777766147 | 9.44° C | 82% | 1021.6 hPa | - | - | 150 W/m² | - |
| 1777765315 | 9.44° C | 80% | 1021.6 hPa | - | - | 150 W/m² | - |
| 1777764898 | 9.44° C | 79% | 1021.8 hPa | - | - | 150 W/m² | - |
| 1777764482 | 9.44° C | 77% | 1021.8 hPa | - | - | 150 W/m² | - |
| 1777764066 | 9.44° C | 74% | 1021.8 hPa | - | - | 150 W/m² | - |
| 1777763649 | 9.44° C | 70% | 1021.8 hPa | - | - | 150 W/m² | - |
| 1777763233 | 9.44° C | 65% | 1021.8 hPa | - | - | 150 W/m² | - |
| 1777762816 | 9.44° C | 62% | 1021.9 hPa | - | - | 150 W/m² | - |
| 1777761983 | 10° C | 56% | 1021.9 hPa | - | - | 150 W/m² | - |
| 1777760734 | 10° C | 55% | 1022.2 hPa | - | - | 150 W/m² | - |
| 1777760318 | 10° C | 57% | 1022.1 hPa | - | - | 150 W/m² | - |
| 1777759901 | 10.56° C | 61% | 1022.1 hPa | - | - | 150 W/m² | - |
| 1777759485 | 10.56° C | 63% | 1022.2 hPa | - | - | 150 W/m² | - |
| 1777759068 | 10.56° C | 66% | 1022.2 hPa | - | - | 150 W/m² | - |
| 1777758235 | 10.56° C | 67% | 1022.1 hPa | - | - | 150 W/m² | - |
| 1777757819 | 10.56° C | 68% | 1022.1 hPa | - | - | 150 W/m² | - |
| 1777756986 | 10.56° C | 69% | 1022.2 hPa | - | - | 150 W/m² | - |
| 1777756569 | 10.56° C | 70% | 1022.3 hPa | - | - | 150 W/m² | - |
| 1777756153 | 10.56° C | 71% | 1022.4 hPa | - | - | 150 W/m² | - |
| 1777755736 | 10.56° C | 72% | 1022.4 hPa | - | - | 150 W/m² | - |
| 1777755320 | 10.56° C | 73% | 1022.5 hPa | - | - | 150 W/m² | - |
| 1777754904 | 10.56° C | 73% | 1022.5 hPa | - | - | 150 W/m² | - |
| 1777754487 | 10.56° C | 73% | 1022.6 hPa | - | - | 150 W/m² | - |
| 1777754071 | 10.56° C | 73% | 1022.7 hPa | - | - | 150 W/m² | - |
| 1777753654 | 10.56° C | 73% | 1022.7 hPa | - | - | 150 W/m² | - |
* Rain since midnight (hover to see other rain measurements)
** Current wind speed in m/s (hover to see current wind gust speed)